Sault Ste Marie, MI

7:20 AM EDT on July 28, 2017 (GMT -0400)
Sault Ste Marie Municipal / Sanderson Field

Weather History for KANJ - February, 2013

Change the Weather History Date:

Monday, February 11, 2013

  Actual Average Record
Temperature  
Mean Temperature 31 °F 17 °F  
Max Temperature 36 °F 25 °F 49 °F (1999)
Min Temperature 26 °F 9 °F -34 °F (1899)
Degree Days  
Heating Degree Days 34 48  
Month to date heating degree days 592 539  
Since 1 July heating degree days 4975 5339  
Moisture  
Dew Point 29 °F    
Average Humidity 87    
Maximum Humidity 96    
Minimum Humidity 78    
Precipitation  
Precipitation 0.31 in 0.05 in 0.84 in (1951)
Month to date precipitation 1.06 0.55  
Year to date precipitation 4.35 2.74  
Snow  
Snow 1.80 in 0.70 in 10.90 in (1951)
Month to date snowfall 13.8 8.5  
Since 1 July snowfall 103.2 90.1  
Snow Depth 22.00 in    
Sea Level Pressure  
Sea Level Pressure 29.41 in    
Wind  
Wind Speed 12 mph (SW)    
Max Wind Speed 26 mph    
Max Gust Speed 43 mph    
Visibility 4 miles    
Events Rain , Snow    
T = Trace of Precipitation, MM = Missing Value Source: NWS Daily Summary

Daily Weather History Graph

Daily Weather History Graph

Search for Another Location

Airport or City:

Trip Planner

Search our weather history database for the weather conditions in past years. The results will help you decide how hot, cold, wet, or windy it might be!

Date:

Astronomy

Feb. 11, 2013 Rise Set
Actual Time 7:46 AM EST 5:57 PM EST
Civil Twilight 7:15 AM EST 6:28 PM EST
Nautical Twilight 6:40 AM EST 7:04 PM EST
Astronomical Twilight 6:05 AM EST 7:39 PM EST
Moon 8:02 AM EST (2/11) 8:03 PM EST (2/11)
Length of Visible Light 11h 13m
Length of Day
10h 10m
Waxing Crescent, 3% of the Moon is Illuminated
Feb 11
Waxing Crescent
Feb 17
First Quarter
Feb 25
Full
Mar 4
Last Quarter
Mar 11
New

Hourly Weather History & Observations

Time (EST) Temp. Windchill Dew Point Humidity Pressure Visibility Wind Dir Wind Speed Gust Speed Precip Events Conditions
12:47 AM 30.9 °F 21.2 °F 28.0 °F 89% 29.55 in 3.0 mi East 12.7 mph 21.9 mph 0.07 in Snow Light Snow
12:55 AM 30.9 °F 20.7 °F 28.0 °F 89% 29.55 in 2.5 mi East 13.8 mph 24.2 mph 0.07 in Snow Light Snow
1:06 AM 30.9 °F 21.2 °F 28.0 °F 89% 29.52 in 1.5 mi ESE 12.7 mph 25.3 mph 0.01 in Snow Light Snow
1:16 AM 30.9 °F 21.7 °F 28.0 °F 89% 29.51 in 3.0 mi ESE 11.5 mph 21.9 mph 0.02 in Snow Light Snow
1:36 AM 32.0 °F 22.5 °F 28.9 °F 88% 29.51 in 5.0 mi ESE 12.7 mph 19.6 mph 0.03 in Snow Light Snow
1:55 AM 32.0 °F 25.6 °F 28.9 °F 88% 29.52 in 9.0 mi ESE 6.9 mph 18.4 mph 0.03 in   Overcast
2:55 AM 33.1 °F 24.9 °F 30.0 °F 89% 29.47 in 7.0 mi ESE 10.4 mph - N/A   Overcast
3:55 AM 33.1 °F 26.9 °F 30.9 °F 92% 29.44 in 4.0 mi East 6.9 mph - 0.04 in   Overcast
4:55 AM 34.0 °F 28.0 °F 32.0 °F 92% 29.40 in 2.5 mi East 6.9 mph - N/A   Overcast
5:38 AM 34.0 °F 26.6 °F 32.0 °F 92% 29.36 in 0.8 mi ESE 9.2 mph - N/A   Mist
6:31 AM 35.1 °F 27.9 °F 33.1 °F 92% 29.34 in 1.0 mi SE 9.2 mph - N/A   Mist
7:55 AM 35.1 °F 27.9 °F 33.1 °F 92% 29.34 in 2.0 mi ESE 9.2 mph - 0.00 in Rain Light Rain
8:31 AM 36.0 °F 28.0 °F 34.0 °F 93% 29.32 in 2.5 mi South 11.5 mph 17.3 mph 0.02 in Rain Light Rain
8:38 AM 36.0 °F 27.5 °F 34.0 °F 93% 29.32 in 4.0 mi South 12.7 mph 19.6 mph 0.03 in Rain Light Rain
8:48 AM 36.0 °F 28.5 °F 34.0 °F 93% 29.32 in 5.0 mi South 10.4 mph - 0.03 in Rain Light Rain
8:55 AM 36.0 °F 28.5 °F 34.0 °F 93% 29.34 in 5.0 mi South 10.4 mph - 0.03 in Rain Light Rain
9:11 AM 36.0 °F 28.0 °F 33.1 °F 89% 29.32 in 10.0 mi SSW 11.5 mph 19.6 mph 0.00 in Rain Light Rain
9:55 AM 35.1 °F 28.6 °F 32.0 °F 89% 29.33 in 10.0 mi SSW 8.1 mph - 0.01 in Rain Light Rain
10:35 AM 35.1 °F 26.4 °F 32.0 °F 89% 29.32 in 10.0 mi SSW 12.7 mph - 0.00 in Rain Light Rain
10:55 AM 35.1 °F 26.9 °F 32.0 °F 89% 29.34 in 9.0 mi SSW 11.5 mph - 0.00 in Rain Light Rain
11:55 AM 35.1 °F 27.4 °F 30.9 °F 85% 29.34 in 5.0 mi SSW 10.4 mph - 0.02 in Snow Light Snow
12:19 PM 34.0 °F 26.0 °F 30.9 °F 89% 29.31 in 3.0 mi SSW 10.4 mph - 0.00 in Snow Light Snow
12:22 PM 34.0 °F 26.0 °F 30.9 °F 89% 29.31 in 2.5 mi SSW 10.4 mph - 0.01 in Snow Light Snow
12:33 PM 34.0 °F 26.0 °F 30.9 °F 89% 29.30 in 2.5 mi SSW 10.4 mph - 0.01 in Snow Light Snow
12:44 PM 34.0 °F 26.6 °F 30.9 °F 89% 29.30 in 2.5 mi SSW 9.2 mph - 0.01 in Snow Light Snow
12:55 PM 34.0 °F 26.6 °F 30.9 °F 89% 29.32 in 3.0 mi SSW 9.2 mph - 0.01 in Snow Light Snow
1:07 PM 34.0 °F 26.0 °F 30.9 °F 89% 29.30 in 3.0 mi SSW 10.4 mph - 0.01 in Snow Light Snow
1:11 PM 34.0 °F 25.5 °F 30.9 °F 89% 29.30 in 2.5 mi SSW 11.5 mph - 0.01 in Snow Light Snow
1:38 PM 34.0 °F 26.0 °F 30.9 °F 89% 29.30 in 3.0 mi SSW 10.4 mph - 0.02 in Snow Light Snow
1:48 PM 34.0 °F 26.0 °F 30.9 °F 89% 29.30 in 2.5 mi SSW 10.4 mph - 0.02 in Snow Light Snow
1:55 PM 34.0 °F 26.6 °F 30.9 °F 89% 29.32 in 2.5 mi SSW 9.2 mph - 0.02 in Snow Light Snow
2:06 PM 34.0 °F 26.0 °F 30.9 °F 89% 29.30 in 3.0 mi SSW 10.4 mph - 0.00 in Snow Light Snow
2:41 PM 34.0 °F 26.6 °F 30.9 °F 89% 29.31 in 2.0 mi SSW 9.2 mph - 0.01 in Snow Light Snow
2:55 PM 34.0 °F 27.2 °F 30.9 °F 89% 29.32 in 2.5 mi SSW 8.1 mph - 0.01 in Snow Light Snow
3:10 PM 34.0 °F 28.0 °F 30.9 °F 89% 29.30 in 5.0 mi SSW 6.9 mph - 0.01 in Snow Light Snow
3:43 PM 35.1 °F 30.1 °F 30.9 °F 85% 29.32 in 7.0 mi SW 5.8 mph - 0.01 in Snow Light Snow
3:55 PM 35.1 °F 31.0 °F 30.9 °F 85% 29.34 in 5.0 mi SW 4.6 mph - 0.01 in Snow Light Snow
4:00 PM 35.1 °F 29.3 °F 30.9 °F 85% 29.32 in 4.0 mi SW 6.9 mph - 0.00 in Snow Light Snow
4:07 PM 35.1 °F 30.1 °F 30.9 °F 85% 29.33 in 5.0 mi SW 5.8 mph - 0.01 in Snow Light Snow
4:40 PM 34.0 °F 31.0 °F 32.0 °F 92% 29.34 in 4.0 mi WSW 3.5 mph - 0.01 in Rain Light Rain
4:55 PM 34.0 °F 29.8 °F 30.9 °F 89% 29.37 in 4.0 mi WSW 4.6 mph - 0.02 in Snow Light Snow
5:46 PM 33.1 °F 23.4 °F 30.9 °F 92% 29.38 in 1.8 mi WSW 13.8 mph 20.7 mph 0.01 in Snow Light Snow
5:55 PM 33.1 °F 21.9 °F 30.0 °F 89% 29.40 in 1.2 mi West 18.4 mph 23.0 mph 0.02 in Snow Light Snow
6:05 PM 32.0 °F 21.6 °F 30.0 °F 92% 29.39 in 2.5 mi West 15.0 mph 24.2 mph 0.00 in Snow Light Snow
6:21 PM 32.0 °F 19.8 °F 30.0 °F 92% 29.40 in 1.2 mi West 20.7 mph 31.1 mph 0.00 in Snow Light Snow
6:39 PM 32.0 °F 20.5 °F 28.9 °F 88% 29.41 in 1.0 mi WNW 18.4 mph 32.2 mph 0.01 in Snow Light Snow
6:55 PM 30.9 °F 17.8 °F 28.0 °F 89% 29.45 in 1.0 mi WNW 23.0 mph 36.8 mph 0.01 in Snow Light Snow
7:20 PM 30.0 °F 17.2 °F 27.0 °F 88% 29.47 in 2.5 mi WNW 20.7 mph 33.4 mph 0.01 in Snow Light Snow
7:40 PM 30.0 °F 16.6 °F 26.1 °F 85% 29.48 in 3.0 mi WNW 23.0 mph 32.2 mph 0.01 in Snow Light Snow
7:55 PM 28.9 °F 15.4 °F 25.0 °F 85% 29.51 in 5.0 mi WNW 21.9 mph 36.8 mph 0.01 in Snow Light Snow
8:34 PM 28.0 °F 13.9 °F 24.1 °F 85% 29.53 in 2.0 mi West 23.0 mph 32.2 mph 0.00 in Snow Light Snow
8:50 PM 28.4 °F 14.7 °F 23.0 °F 80% 29.54 in 5.0 mi WNW 21.9 mph 32.2 mph 0.00 in Snow Light Snow
8:55 PM 28.0 °F 14.3 °F 23.0 °F 81% 29.56 in 4.0 mi WNW 21.9 mph 33.4 mph 0.00 in Snow Light Snow
9:55 PM 27.0 °F 12.8 °F 21.9 °F 81% 29.61 in 5.0 mi West 21.9 mph 35.7 mph 0.00 in   Overcast
10:55 PM 26.1 °F 12.7 °F 21.0 °F 81% 29.65 in 6.0 mi WNW 18.4 mph 32.2 mph 0.00 in   Overcast
11:32 PM 26.1 °F 12.7 °F 19.9 °F 78% 29.63 in 10.0 mi WNW 18.4 mph 28.8 mph 0.00 in   Overcast
11:50 PM 26.6 °F 12.7 °F 19.4 °F 74% 29.64 in 5.0 mi WNW 20.7 mph 33.4 mph 0.00 in Snow Light Snow
11:55 PM 26.1 °F 12.3 °F 19.9 °F 78% 29.66 in 5.0 mi WNW 19.6 mph 33.4 mph 0.00 in Snow Light Snow